SCP
0 0 0 0 0 0 0 0 0 0 0 0 0 0 0 0 0 0 0 0 0 1 1 1 1 0 0 0 0 0 0 0 0 0 0 0 0 0 0 0 0 0 0 0
0 0 0 0 0 0 0 0 0 0 0 0 0 0 0 0 0 0 0 0 0 1 1 1 1 1 0 0 0 0 0 0 0 0 0 0 0 0 0 0 0 0 0 0
0 0 0 0 0 0 0 0 0 0 0 0 0 0 0 0 0 0 0 0 0 1 1 1 1 1 1 1 1 1 0 0 0 0 0 0 0 0 0 1 1 1 0 0
0 0 0 0 0 0 0 0 0 0 0 0 0 0 0 0 0 0 0 0 0 1 1 1 1 1 1 1 1 1 1 1 1 1 1 1 1 1 1 1 1 1 1 0
0 0 0 0 0 0 0 0 0 0 0 0 0 0 0 0 0 0 0 0 0 0 1 1 1 2 2 2 1 1 1 1 1 1 1 1 1 1 1 1 1 1 0 0
0 0 0 0 0 0 0 0 0 0 0 0 0 0 0 0 0 0 0 0 0 0 1 1 2 2 3 2 2 2 1 1 1 1 1 1 1 1 1 1 1 1 0 0
0 0 0 0 0 0 0 0 0 0 0 0 0 0 0 1 1 1 1 1 1 1 1 2 3 3 4 3 3 3 2 2 2 2 1 1 1 1 1 1 1 1 1 1
0 0 0 0 0 0 0 0 0 0 0 0 0 1 1 1 1 1 1 1 1 2 2 2 3 4 4 4 4 3 3 2 2 2 1 1 1 1 1 1 1 1 1 1
1 1 1 0 0 0 0 0 0 0 0 0 0 1 1 1 1 1 1 1 1 2 2 3 3 4 4 4 4 4 3 3 3 2 2 1 1 1 1 1 1 1 1 1
1 1 1 0 0 0 0 0 0 0 0 0 0 0 1 1 1 1 1 1 1 1 2 2 3 3 3 4 4 4 3 3 3 2 2 2 2 1 1 1 1 1 1 1
1 1 1 0 0 0 0 0 0 0 0 0 0 0 0 0 1 1 1 1 1 1 1 1 2 2 2 2 3 3 3 3 2 2 2 2 2 1 1 1 1 1 0 0
1 1 1 0 0 0 0 0 0 0 0 0 0 0 0 0 0 0 0 0 0 1 1 1 1 1 1 1 2 2 2 2 1 1 1 1 1 1 1 0 0 0 0 0
1 1 0 0 0 0 0 0 0 0 0 0 0 0 0 0 0 0 0 0 0 0 0 0 0 1 1 1 1 1 1 1 1 1 1 1 1 1 1 0 0 0 0 0
1 0 0 0 0 0 0 0 0 0 0 0 0 0 0 0 0 0 0 0 0 0 0 0 0 0 0 0 1 1 1 1 1 1 1 1 1 1 1 1 0 0 0 0
0 0 0 0 0 0 0 0 0 0 0 0 0 0 0 0 0 0 0 0 0 0 0 0 0 0 0 0 0 0 0 0 0 0 0 0 0 1 1 1 1 0 0 0
0 0 0 0 0 0 0 0 0 0 0 0 0 0 0 0 0 0 0 0 0 0 0 0 0 0 0 0 0 0 0 0 0 0 0 0 0 0 0 0 0 0 0 0
0 0 0 0 0 0 0 0 0 0 0 0 0 0 0 0 0 0 0 0 0 0 0 0 0 0 0 0 0 0 0 0 0 0 0 0 0 0 0 0 0 0 0 0
0 0 0 0 0 0 0 0 0 0 0 0 0 0 0 0 0 0 0 0 0 0 0 0 0 0 0 0 0 0 0 0 0 0 0 0 0 0 0 0 0 0 0 0
0 0 0 0 0 0 0 0 0 0 0 0 0 0 0 0 0 0 0 0 0 0 0 0 0 0 0 0 0 0 0 0 0 0 0 0 0 0 0 0 0 0 0 0
0 0 0 0 0 0 0 0 0 0 0 0 0 0 0 0 0 0 0 0 0 0 0 0 0 0 0 0 0 0 0 0 0 0 0 0 0 0 0 0 0 0 0 0
0 0 0 0 0 0 0 0 0 0 0 0 0 0 0 0 0 0 0 0 0 0 0 0 0 0 0 0 0 0 0 0 0 0 0 0 0 0 0 0 0 0 0 0
0 0 0 0 0 0 0 0 0 0 0 0 0 0 0 0 0 0 0 0 0 0 0 0 0 0 0 0 0 0 0 0 0 0 0 0 0 0 0 0 0 0 0 0
0 0 0 0 0 0 0 0 0 0 0 0 0 0 0 0 0 0 0 0 0 0 0 0 0 0 0 0 0 0 0 0 0 0 0 0 0 0 0 0 0 0 0 0
0 0 0 0 0 0 0 0 0 0 0 0 0 0 0 0 0 0 0 0 0 0 0 0 0 0 0 0 0 0 0 0 0 0 0 0 0 0 0 0 0 0 0 0
0 0 0 0 0 0 0 0 0 0 0 0 0 0 0 0 0 0 0 0 0 0 0 0 0 0 0 0 0 0 0 0 0 0 0 0 0 0 0 0 0 0 0 0
0 0 0 0 0 0 0 0 0 0 0 0 0 0 0 0 0 0 0 0 0 0 0 0 0 0 0 0 0 0 0 0 0 0 0 0 0 0 0 0 0 0 0 0
0 0 0 0 0 0 0 0 0 0 0 0 0 0 0 0 0 0 0 0 0 0 0 0 0 0 0 0 0 0 0 0 0 0 0 0 0 0 0 0 0 0 0 0
Wind_Speed
12 11 11 13 11 9 8 8 9 7 5 2 0 2 3 2 4 4 6 8 7 7 8 7 7 7 7 7 6 6 6 6 6 6 6 5 5 4 4 5 6 5 5 5
14 14 13 14 12 9 8 8 7 7 3 4 4 3 2 1 2 4 5 7 9 9 10 10 9 8 8 8 7 7 6 6 5 5 5 4 4 5 5 5 5 5 6 6
13 13 12 11 10 7 6 6 4 3 1 1 1 1 1 1 3 3 5 6 8 10 10 10 10 10 9 9 8 8 8 7 6 6 6 5 6 5 4 4 5 5 6 6
12 12 14 6 6 4 5 4 2 1 2 2 2 1 1 2 3 2 2 4 6 8 10 11 11 11 10 10 9 9 9 9 8 7 6 5 5 5 4 4 4 5 6 6
10 11 10 7 7 8 5 5 8 6 5 6 5 4 4 4 1 2 2 1 2 5 9 10 11 11 12 11 10 11 10 9 9 8 7 6 5 5 4 4 5 6 7 7
11 12 10 3 1 2 3 2 11 11 10 10 9 5 4 6 4 4 3 1 3 5 5 6 8 9 11 11 11 11 10 9 8 7 6 6 6 5 5 4 6 7 8 7
11 11 4 5 2 0 1 2 8 9 9 9 8 7 8 9 8 7 6 5 3 2 3 3 4 6 8 9 9 9 8 8 8 7 7 7 6 5 5 6 7 8 8 7
7 8 1 5 6 6 3 3 6 8 9 9 9 9 10 12 12 12 12 10 7 4 3 2 1 3 5 6 5 5 6 7 7 7 8 8 7 7 7 7 8 8 9 9
1 0 5 6 7 3 2 4 6 7 9 10 10 11 12 13 13 13 14 13 11 10 8 7 5 2 3 3 3 4 5 6 6 7 7 6 6 7 7 7 8 9 8 7
3 8 8 7 7 6 6 7 8 10 11 11 11 12 12 12 12 12 13 13 13 12 11 9 9 7 5 4 3 4 5 5 5 6 7 7 7 7 8 8 8 8 7 6
3 8 10 6 5 7 9 10 10 11 12 12 12 12 11 10 11 11 11 11 11 10 9 9 9 8 7 6 4 5 6 6 7 9 9 8 8 8 9 8 8 7 5 4
3 7 8 8 7 8 9 9 9 10 11 12 12 11 11 10 9 9 10 10 9 10 10 9 8 8 7 6 6 6 6 7 8 8 8 8 9 10 15 16 16 16 14 11
6 8 12 10 9 9 8 8 9 10 10 10 10 10 10 9 8 8 9 9 9 10 10 9 8 8 9 8 8 7 8 8 8 9 9 8 7 7 7 9 15 16 15 15
9 8 10 10 10 9 9 9 9 10 10 9 9 9 9 9 8 9 9 9 10 10 10 10 10 9 9 9 9 9 11 11 11 9 10 10 9 8 7 7 5 5 11 17
8 9 10 10 9 9 9 9 8 8 9 9 8 8 9 9 8 9 9 9 10 10 11 11 11 9 10 11 11 11 12 11 10 10 10 10 9 8 7 7 6 5 4 7
10 11 11 10 9 8 8 8 7 8 8 8 9 9 9 9 9 9 9 10 10 11 11 10 9 10 10 11 12 11 10 14 14 11 11 10 9 8 7 6 5 4 4 5
9 8 8 7 6 6 6 7 7 8 9 10 10 11 10 10 10 9 9 10 10 10 9 9 8 10 11 11 13 12 12 13 16 13 12 10 9 8 6 5 5 5 5 3
11 10 7 5 5 5 6 7 8 9 9 10 11 11 10 10 10 10 10 10 10 10 9 8 9 12 12 11 10 11 11 11 12 12 10 9 9 8 6 5 4 5 4 3
7 5 3 2 3 4 6 8 9 9 9 10 10 10 10 10 10 10 10 10 11 9 8 9 11 12 12 10 12 10 11 13 12 10 9 9 9 8 6 4 5 4 4 4
3 1 2 4 5 7 8 9 10 10 10 10 10 10 10 10 10 10 10 10 7 7 8 10 11 10 10 10 13 12 12 13 12 10 10 9 8 8 6 5 5 5 5 4
2 4 6 7 8 9 9 10 10 11 10 10 10 10 10 10 11 10 9 9 6 5 8 10 7 7 9 11 14 12 12 11 10 10 9 8 7 7 7 6 5 5 5 4
6 7 9 10 10 10 10 10 11 11 11 10 11 11 11 10 11 9 7 6 6 5 7 8 8 9 11 14 11 11 11 10 9 8 8 8 8 7 7 7 6 5 5 5
7 8 10 11 11 11 11 11 12 11 11 11 11 11 10 9 9 9 8 5 6 6 7 7 7 10 14 11 9 10 10 10 9 9 8 8 8 7 7 7 6 6 5 5
9 10 10 11 11 12 12 12 11 9 10 10 10 9 8 8 7 6 6 6 7 7 6 6 8 11 11 8 8 8 8 8 8 9 9 8 8 7 7 7 7 6 6 7
10 10 11 11 11 10 10 10 11 10 10 8 9 9 8 7 7 7 7 8 8 8 6 6 8 10 9 8 8 8 8 8 9 9 8 8 8 8 7 7 7 7 7 7
9 9 9 9 9 8 9 9 8 7 8 8 8 8 8 7 7 6 5 7 9 8 7 6 7 8 8 8 8 8 8 8 8 8 9 8 9 8 8 8 10 8 7 7
10 9 7 7 7 7 8 8 8 8 8 8 8 8 8 7 6 6 6 6 6 7 6 6 7 7 7 7 7 8 7 7 8 8 8 8 8 8 8 10 8 7 7 7
Wind_Direction
296 276 255 258 260 259 261 270 279 282 279 293 179 125 117 140 168 184 174 176 177 168 163 171 177 178 185 192 190 193 192 201 204 205 213 223 232 240 248 254 264 266 268 270
291 290 289 286 281 272 274 274 277 288 316 53 79 98 106 149 200 196 195 195 186 180 175 179 186 189 192 194 191 185 195 207 209 208 215 226 236 240 244 245 252 257 263 268
284 296 295 288 297 288 294 288 280 287 321 100 150 93 42 313 271 228 210 207 193 184 183 184 189 192 196 193 192 190 194 205 209 205 214 222 238 246 252 261 265 263 263 265
278 281 278 286 310 282 262 286 303 326 19 30 27 64 259 259 277 275 254 233 201 188 184 186 191 193 194 194 193 196 198 203 206 208 215 216 222 236 247 252 259 264 266 269
272 275 276 296 343 347 344 358 6 26 36 22 13 352 27 45 343 290 266 253 215 209 205 193 194 192 188 196 194 200 203 203 204 205 209 213 220 229 236 245 253 258 262 259
262 271 278 306 28 323 296 21 12 20 18 5 359 341 37 28 7 325 310 272 223 227 225 199 192 187 186 196 200 204 205 200 199 196 201 209 217 222 232 239 250 256 257 255
257 269 278 41 30 276 224 43 354 1 355 352 9 352 349 358 7 3 0 354 332 276 251 229 189 183 193 200 206 205 202 198 194 191 194 206 214 217 224 237 248 253 257 258
254 271 252 42 30 43 58 16 354 354 355 0 359 1 12 18 19 18 13 8 0 348 337 317 221 185 204 215 214 204 203 203 197 194 208 215 210 216 221 233 248 253 253 254
307 346 119 122 116 117 68 52 25 19 14 16 23 27 31 33 30 27 22 16 10 8 9 6 1 342 256 245 232 227 221 216 208 206 209 217 220 224 225 229 242 252 255 256
52 97 98 105 113 102 80 65 52 44 39 38 38 38 42 40 33 29 25 20 15 14 12 8 2 352 332 306 264 237 235 233 227 226 229 226 226 233 237 239 242 245 250 259
173 125 117 94 90 94 82 70 60 53 48 44 43 40 42 42 33 28 26 21 17 12 6 2 359 353 343 335 313 273 255 247 247 245 243 239 231 231 235 239 242 246 255 262
107 134 131 131 117 95 87 78 69 59 52 45 41 37 36 34 29 23 21 16 11 5 358 354 350 344 341 335 322 304 284 271 266 260 251 243 239 238 229 229 236 228 226 233
75 85 106 110 95 86 86 82 77 66 54 44 37 28 26 20 16 11 10 8 3 355 348 346 346 346 350 350 339 322 303 291 282 277 274 265 254 250 253 238 233 233 230 231
89 93 98 88 79 68 62 61 61 57 44 33 25 17 11 5 1 358 360 357 354 346 342 345 344 348 351 347 339 327 313 297 286 277 273 271 266 261 260 260 253 237 228 229
96 102 100 88 76 65 52 45 40 35 23 14 9 2 354 350 348 347 351 350 348 342 345 343 339 350 353 344 332 320 309 298 292 288 283 277 272 268 264 261 256 252 253 228
103 99 97 89 72 55 45 36 22 11 4 356 351 345 342 341 341 342 346 346 344 340 337 334 340 353 347 336 326 313 302 297 297 294 287 279 272 268 263 257 257 257 256 263
117 106 92 79 64 44 26 15 5 358 352 348 345 343 342 340 338 341 342 340 336 329 329 332 346 349 336 325 320 317 315 314 311 304 296 292 289 282 274 267 266 265 267 271
82 79 73 58 32 14 2 355 350 346 342 338 338 339 338 336 334 334 332 330 323 320 326 338 350 337 324 325 330 323 317 313 313 312 311 310 308 304 296 287 284 287 291 276
100 93 79 45 356 341 346 341 336 335 333 332 332 331 330 327 326 326 325 320 316 316 332 341 335 324 319 341 342 322 316 313 313 315 315 314 309 302 301 303 301 296 295 292
95 42 341 329 332 338 334 332 330 327 326 324 321 320 319 319 320 318 316 309 312 326 331 328 323 322 329 349 339 321 317 317 320 321 319 317 314 312 318 322 315 310 303 300
324 320 321 326 333 331 328 327 323 319 316 315 314 313 313 315 314 310 304 307 322 340 324 317 319 342 346 336 320 319 323 326 327 327 324 320 319 320 322 317 313 313 315 319
331 328 327 326 323 320 319 317 311 309 310 311 312 313 313 310 306 303 304 306 319 348 328 332 349 360 343 325 324 329 331 330 331 331 330 327 327 324 320 321 324 326 330 331
324 323 318 314 312 311 311 307 304 307 309 309 307 303 301 302 302 304 309 329 343 352 340 3 6 353 333 328 338 341 340 340 338 335 332 329 328 329 330 333 334 333 334 333
312 308 307 307 306 304 299 299 303 302 296 294 294 299 304 305 311 325 336 2 18 359 3 40 19 356 336 345 351 349 345 342 339 334 331 329 329 333 337 338 339 342 341 341
299 299 297 296 295 296 303 305 302 299 301 308 315 323 324 329 334 341 347 3 15 2 6 39 31 3 357 358 355 352 349 348 344 337 338 341 342 343 344 342 344 345 342 339
290 288 292 295 296 295 295 298 306 315 318 319 323 329 332 333 335 345 5 14 18 21 17 16 12 7 6 5 3 358 352 347 347 346 343 343 344 345 343 342 341 340 336 332
295 294 290 290 299 306 315 320 321 322 324 325 327 328 329 333 345 4 16 20 26 25 21 17 16 15 13 10 5 359 354 352 351 349 348 347 346 344 342 340 337 334 331 328